Regional Weather Roundup
Issued by NWS

Home | Current Version | Previous Version | Graphics & Text | Print | Product List | Glossary On
Versions: 1 2 3 4 5 6 7 8 9 10 11 12 13 14 15 16 17 18 19 20 21 22 23 24 25 26 27 28 29 30 31 32 33 34 35 36 37 38 39 40 41 42 43 44 45 46 47 48 49 50
000
ASUS43 KLOT 202110
RWRIL

ILLINOIS REGIONAL WEATHER ROUNDUP
NATIONAL WEATHER SERVICE CHICAGO/ROMEOVILLE IL
400 PM CDT MON OCT 20 2014

NOTE: "FAIR" INDICATES FEW OR NO CLOUDS BELOW 12,000 FEET WITH NO
SIGNIFICANT WEATHER AND/OR OBSTRUCTIONS TO VISIBILITY.

* THESE STATIONS ARE NOT UNDER NWS QUALITY CONTROL. THEY ALSO MAY NOT
  REPORT WEATHER SUCH AS PRECIPITATION OR FOG.

ILZ001-002-007-009-015-016-024-202200-
NORTHWEST ILLINOIS

CITY           SKY/WX    TMP DP  RH WIND       PRES   REMARKS
MOLINE         MOSUNNY   68  43  40 NW14G23   29.92S
STERLING*      MOSUNNY   63  45  51 N13       29.91R
SAVANNA*       MOSUNNY   66  41  40 NW12      29.92R
$$

ILZ003-004-008-010-011-017-018-202200-
NORTH CENTRAL ILLINOIS

CITY           SKY/WX    TMP DP  RH WIND       PRES   REMARKS
ROCKFORD       PTSUNNY   64  42  44 N20G25    29.91R
FREEPORT*      PTSUNNY   61  42  48 NW13G20   29.92R
ROCHELLE*      PTSUNNY   62  42  48 N16       29.90R
DE KALB*       PTSUNNY   60  42  50 N13G18    29.90R
PERU*          PTSUNNY   66  43  43 NW14G21   29.90S
$$

ILZ005-006-012>014-019>023-202200-
NORTHEAST ILLINOIS

CITY           SKY/WX    TMP DP  RH WIND       PRES   REMARKS
CHICAGO-OHARE  PTSUNNY   59  48  67 NE13      29.87R
CHICAGO-MIDWAY PTSUNNY   61  50  67 NE8       29.87R
AURORA         SUNNY     64  40  41 NW16G23   29.89R
LANSING*       CLOUDY    58  49  70 N8        29.87R
JOLIET*        PTSUNNY   65  44  47 NW8G18    29.87R
WAUKEGAN       CLOUDY    53  45  74 N7        29.89R
DUPAGE AIRPORT MOSUNNY   64  43  46 NW21      29.88R
KANKAKEE*      MOSUNNY   65  49  55 NW15G22   29.86R
WHEELING       CLOUDY    57  47  69 N12       29.90R
MORRIS*        MOSUNNY   67  46  47 NW8G18    29.87R
ROMEOVILLE*    PTSUNNY   62  42  48 NW8G17    29.87R
NORTHERLY ISL    N/A     55  49  80 N9          N/A
$$

LMZ740>746-202200-
SOUTHERN LAKE MICHIGAN

STATION/POSITION SKY/WX   TEMP    WIND        PRES    VSBY  WAVE
                          AIR SEA DIR/SP/G                  HT/PER
                          (F)     (DEG/KT/KT) (MB)    (MI)  (FT/S)
SOUTHERN BUOY              53 55  340/ 17/ 21 1011.6R         3/ 4
WAUKEGAN HARBOR            54      10/ 15/ 18   N/A
HARRISON CRIB              54     360/ 15/ 17   N/A
BURNHAM HARBOR             55      10/ 10/ 12   N/A
CALUMET HARBOR             55     360/  9/ 12 1010.4R
MICHIGAN CITY              53     350/ 12/ 13   N/A
$$

ILZ025>027-034>036-040-047-049-050-058-095>099-202200-
WEST-CENTRAL ILLINOIS

CITY           SKY/WX    TMP DP  RH WIND       PRES   REMARKS
QUINCY         SUNNY     69  43  38 NW14      29.97R
GALESBURG*     MOSUNNY   66  44  43 NW15G23   29.94S
MACOMB*        MOSUNNY   68  43  41 NW13      29.97S
JACKSONVILLE*  SUNNY     71  43  36 NW13      29.94S
PITTSFIELD*    SUNNY     70  42  35 NW10G21   29.97S
$$

ILZ028>032-037-038-041>044-048-051>054-059>061-202200-
CENTRAL ILLINOIS

CITY           SKY/WX    TMP DP  RH WIND       PRES   REMARKS
PONTIAC        MOSUNNY   64  45  48 NW9       29.88R
BLOOMINGTON    MOSUNNY   67  46  46 NW15      29.91S
DECATUR        SUNNY     68  45  43 W12G22    29.91R
PEORIA         MOSUNNY   69  43  38 NW13G18   29.92R
LACON*         MOSUNNY   65  42  43 NW15G22   29.91R
LINCOLN*       SUNNY     69  42  37 NW13G20   29.90R
SPRINGFIELD    SUNNY     70  43  37 NW15G23   29.93R
TAYLORVILLE    SUNNY     68  43  40 NW14G22   29.92R
$$

ILZ033-039-045-046-055>057-062-063-202200-
EAST-CENTRAL ILLINOIS

CITY           SKY/WX    TMP DP  RH WIND       PRES   REMARKS
CHAMPAIGN      MOSUNNY   68  46  45 NW16G24   29.89R
DANVILLE*      PTSUNNY   67  47  50 NW14G20   29.84R
RANTOUL*       SUNNY     69  43  40 NW14      29.89R
MATTOON        SUNNY     68  44  42 NW18      29.88S
PARIS*         SUNNY     69  46  43 NW10G21   29.88R
$$

ILZ079-100>102-202200-
SOUTHWEST ILLINOIS

CITY           SKY/WX    TMP DP  RH WIND       PRES   REMARKS
ALTON          SUNNY     72  37  28 W12       29.94R
BELLEVILLE     SUNNY     72  49  42 NW8G17    29.93R
CAHOKIA*       SUNNY     74  44  34 NW15      29.94R
SPARTA*        SUNNY     74  49  41 NW10G18   29.93S
$$

ILZ064>066-069>071-074>076-080>082-084>086-088>090-092>094-202200-
SOUTH-CENTRAL ILLINOIS

CITY           SKY/WX    TMP DP  RH WIND       PRES   REMARKS
CARBONDALE     SUNNY     74  51  44 W10       29.92S
CAIRO*         SUNNY     75  54  47 SW8       29.94S
EFFINGHAM*     SUNNY     71  37  28 NW10      29.89S
MT. VERNON     SUNNY     73  46  38 W12       29.91S
CENTRALIA*     SUNNY     73  45  36 NW14      29.91S
SALEM*         SUNNY     74  44  34 W16G22    29.91S
METROPOLIS*    SUNNY     73  55  54 SW8G17    29.93S
$$

ILZ067-068-072-073-078-083-087-091-202200-
SOUTHEAST ILLINOIS

CITY           SKY/WX    TMP DP  RH WIND       PRES   REMARKS
LAWRENCEVILLE  SUNNY     73  47  39 W15G22    29.88R
FLORA*         SUNNY     73  42  32 W14       29.90R
FAIRFIELD*     SUNNY     74  46  37 W8G20     29.89S
HARRISBURG*    SUNNY     73  54  50 W10       29.92S
ROBINSON*      SUNNY     75  45  34 NW14G20   29.88S
CARMI*         MOSUNNY   76  54  45 W12       29.89S
$$

ABBREVIATIONS USED IN REMARKS
   TC - TEMPERATURE IN CELSIUS
  WCI - WIND CHILL INDEX
   HX - HEAT INDEX
  VSB - VISIBILITY
$$



USA.gov is the U.S. government's official web portal to all federal, state and local government web resources and services.